#timestamp,LO_Frequency,Hit 
1502092815.7,286046939.2,N
1502092835.6,286046939.8,N
1502092855.4,286046939.4,N
1502092875.2,286046939.4,N
1502092895.0,286046940.1,N
1502092896.0,286046940.1,N
1502092915.8,286046939.9,N
1502092935.6,286046937.5,N
1502092955.4,286046940.1,N
1502092975.3,286046937.4,N
1502092995.1,286046937.4,N
1502093015.8,286046937.8,N
1502093035.7,286046938.0,N
1502093055.5,286046938.5,N
1502093075.3,286046937.5,N
1502093095.2,286046938.6,N
1502093115.9,286046939.8,N
1502093135.7,286046938.0,N
1502093155.6,286046940.1,N
1502093175.4,286046940.1,N
1502093195.2,286046938.4,N
1502093215.0,286046940.1,N
1502093215.9,286046940.1,N
1502093235.8,286046937.4,N
1502093255.6,286046939.8,N
1502093275.4,286046937.9,N
1502093295.3,286046938.1,N
1502093315.1,286046936.1,N
1502093335.8,286046936.1,N
1502093355.7,286046938.7,N
1502093375.5,286046936.1,N
1502093395.3,286046937.0,N
1502093415.2,286046936.5,N
1502093435.9,286046936.0,N
1502093455.7,286046937.2,N
1502093475.6,286046937.0,N
1502093495.4,286046934.9,N
1502093515.2,286046936.2,N
1502093535.0,286046936.7,N
1502093536.0,286046936.7,N
1502093555.8,286046936.6,N
1502093575.6,286046937.5,N
1502093595.4,286046935.8,N
1502093615.3,286046937.5,N
1502093635.1,286046938.8,N
1502093655.8,286046936.5,N
1502093675.7,286046937.0,N
1502093695.5,286046936.7,N
1502093715.3,286046934.8,N
1502093735.2,286046935.5,N
1502093755.9,286046933.3,N
1502093775.7,286046935.2,N
1502093795.6,286046933.2,N
1502093815.4,286046934.8,N
1502093835.2,286046932.7,N
1502093855.0,286046937.2,N
1502093856.0,286046937.2,N
1502093875.8,286046936.7,N
1502093895.6,286046934.5,N
1502093915.4,286046934.7,N
1502093935.3,286046934.2,N
1502093955.1,286046936.9,N
1502093975.8,286046934.3,N
1502093995.7,286046936.7,N
1502094015.5,286046936.3,N
1502094035.3,286046934.3,N
1502094055.2,286046934.1,N
1502094075.9,286046935.8,N
1502094095.7,286046937.0,N
1502094115.6,286046938.4,N
1502094135.4,286046938.7,N
1502094155.2,286046938.3,N
1502094175.1,286046938.7,N
1502094176.0,286046938.7,N
1502094195.8,286046937.1,N
1502094215.6,286046936.3,N
1502094235.5,286046937.2,N
1502094255.3,286046936.5,N
1502094275.1,286046934.5,N
1502094295.8,286046936.0,N
1502094315.7,286046935.9,N
1502094335.5,286046936.7,N
1502094355.3,286046937.1,N
1502094375.2,286046932.8,N
1502094395.9,286046935.1,N
1502094415.7,286046933.3,N
1502094435.6,286046933.5,N
1502094455.4,286046935.5,N
1502094475.2,286046932.8,N
1502094495.1,286046933.2,N
1502094496.0,286046933.2,N
1502094515.8,286046933.0,N
1502094535.6,286046933.0,N
1502094555.5,286046933.7,N
1502094575.3,286046933.1,N
1502094595.1,286046935.4,N
1502094615.8,286046933.3,N
1502094635.7,286046933.3,N
1502094655.5,286046936.7,N
1502094675.3,286046932.5,N
1502094695.2,286046935.4,N
1502094715.9,286046933.5,N
1502094735.7,286046935.4,N
1502094755.6,286046935.1,N
1502094775.4,286046937.0,N
1502094795.2,286046935.0,N
1502094815.1,286046933.0,N
1502094816.0,286046933.0,N
1502094835.8,286046935.0,N
1502094855.6,286046932.8,N
1502094875.5,286046935.3,N
1502094895.3,286046933.4,N
1502094915.1,286046930.9,N
1502094935.8,286046935.6,N
1502094955.7,286046933.4,N
1502094975.5,286046933.0,N
1502094995.3,286046931.8,N
1502095015.2,286046931.9,N
1502095035.9,286046932.1,N
1502095055.7,286046929.6,N
1502095075.6,286046929.4,N
1502095095.4,286046931.0,N
1502095115.2,286046932.4,N
1502095135.1,286046930.2,N
1502095136.0,286046930.2,N
1502095155.8,286046930.5,N
1502095175.6,286046931.7,N
1502095195.5,286046932.3,N
1502095215.3,286046932.2,N
1502095235.1,286046930.8,N
1502095255.9,286046931.0,N
1502095275.7,286046931.8,N
1502095295.5,286046929.3,N
1502095315.3,286046930.6,N
1502095335.2,286046929.6,N
1502095355.0,286046929.8,N
1502095355.9,286046929.8,N
1502095375.7,286046931.5,N
1502095395.6,286046931.8,N
1502095415.4,286046932.9,N
1502095435.2,286046935.6,N
1502095455.1,286046932.7,N
1502095456.0,286046932.7,N
1502095475.8,286046935.5,N
1502095495.6,286046935.5,N
1502095515.5,286046930.9,N
1502095535.3,286046931.3,N
1502095555.1,286046932.7,N
1502095575.9,286046933.8,N
1502095595.7,286046930.9,N
1502095615.5,286046933.3,N
1502095635.3,286046933.1,N
1502095655.2,286046931.0,N
1502095675.0,286046933.9,N
1502095675.9,286046933.9,N
1502095695.7,286046933.7,N
1502095715.6,286046929.3,N
1502095735.4,286046930.0,N
1502095755.2,286046932.4,N
1502095775.1,286046933.1,N
1502095776.0,286046933.1,N
1502095795.8,286046933.6,N
1502095815.6,286046931.0,N
1502095835.5,286046932.0,N
1502095855.3,286046933.7,N
1502095875.1,286046933.7,N
1502095895.9,286046931.2,N
1502095915.7,286046931.2,N
1502095935.5,286046931.4,N
1502095955.3,286046931.6,N
1502095975.2,286046931.8,N
1502095995.0,286046931.1,N
1502095995.9,286046931.1,N
1502096015.7,286046931.1,N
1502096035.6,286046931.2,N
1502096055.4,286046931.2,N
1502096075.2,286046931.5,N
1502096095.1,286046931.9,N
1502096096.0,286046931.9,N
1502096115.8,286046931.9,N
1502096135.6,286046932.6,N
1502096155.5,286046937.2,N
1502096175.3,286046933.0,N
1502096195.1,286046933.0,N
1502096215.9,286046933.0,N
1502096235.7,286046933.3,N
1502096255.5,286046931.2,N
1502096275.3,286046933.7,N
1502096295.2,286046930.9,N
1502096315.0,286046931.9,N
1502096315.9,286046931.9,N
1502096335.7,286046930.9,N
1502096355.6,286046933.8,N
1502096375.4,286046933.7,N
1502096395.2,286046932.1,N
